Temp
15 14 14 14 14 14 13 13 13 12 12 11 11 11 10 10 10 10 10 10 10 9 9 9 9 9 9 9 9 8 8 8 8 8 7 7 7 7 7 7 6 6 6 6 6 5 5 5 5 5 5 4 4 4 4 4 4 4 4 3 3 3 3 3 3 3 3 3 3
14 14 14 14 13 13 13 12 12 12 11 11 10 10 10 10 10 10 10 9 9 9 9 9 9 9 9 9 8 8 8 8 8 7 7 7 7 7 6 6 6 6 6 5 5 5 5 5 4 4 4 4 4 4 4 4 4 3 3 3 3 3 3 3 3 3 3 3 3
14 13 13 13 13 13 12 12 12 11 11 10 10 10 10 10 10 10 9 9 9 9 9 9 9 9 9 9 8 8 8 8 7 7 7 7 7 6 6 6 6 6 5 5 5 5 5 4 4 4 4 4 4 4 4 3 3 3 3 3 3 3 3 3 3 3 3 3 2
13 13 13 12 12 12 12 12 11 11 10 10 10 10 10 10 10 9 9 9 9 9 9 9 9 9 9 9 8 8 8 7 7 7 7 7 7 6 6 6 5 5 5 5 5 4 4 4 4 4 4 4 4 3 3 3 3 3 3 3 3 3 3 2 2 2 2 2 2
12 12 12 12 12 12 11 11 11 11 10 10 10 10 10 10 10 10 9 9 9 9 9 9 9 9 9 8 8 8 7 7 7 7 7 6 6 6 6 5 5 5 5 5 4 4 4 4 4 4 4 3 3 3 3 3 3 3 3 3 2 2 2 2 2 2 2 2 2
12 12 12 12 12 11 11 11 11 10 10 10 10 10 10 10 10 10 10 10 10 9 9 9 9 9 8 8 8 7 7 7 7 6 6 6 6 6 5 5 5 5 5 4 4 4 4 4 4 3 3 3 3 3 3 3 3 2 2 2 2 2 2 2 2 2 2 2 2
12 12 12 11 11 11 11 11 11 10 10 10 10 10 10 10 10 10 10 10 9 9 9 9 9 8 8 8 7 7 7 7 6 6 6 6 5 5 5 5 5 4 4 4 4 4 4 3 3 3 3 3 3 3 3 2 2 2 2 2 2 2 2 2 2 2 2 2 2
12 11 11 11 11 11 11 11 10 10 10 10 10 10 10 10 10 10 9 9 9 9 9 8 8 8 8 7 7 7 7 6 6 6 6 5 5 5 5 4 4 4 4 4 4 4 3 3 3 3 3 3 3 2 2 2 2 2 2 2 2 2 2 2 2 2 2 2 1
11 11 11 11 11 11 11 10 10 10 10 10 10 10 10 10 9 9 9 9 9 9 8 8 8 7 7 7 7 6 6 6 6 5 5 5 5 4 4 4 4 4 4 4 3 3 3 3 3 3 3 2 2 2 2 2 2 2 2 2 2 2 2 2 2 2 2 1 1
11 11 11 11 11 11 10 10 10 10 10 10 10 10 9 9 9 9 9 9 8 8 8 7 7 7 7 6 6 6 6 5 5 5 5 4 4 4 4 4 4 4 4 3 3 3 3 3 3 2 2 2 2 2 2 2 2 2 2 2 2 2 2 2 2 2 2 1 1
11 11 11 11 11 10 10 10 10 10 10 10 9 9 9 9 9 9 8 8 8 8 7 7 7 6 6 6 6 5 5 5 5 4 4 4 4 4 4 4 4 3 3 3 3 3 3 2 2 2 2 2 2 2 2 2 2 2 2 2 2 2 2 2 2 2 2 1 1
11 11 11 11 10 10 10 10 10 10 9 9 9 9 9 9 8 8 8 8 7 7 7 7 6 6 6 5 5 5 5 4 4 4 4 4 4 4 4 3 3 3 3 3 3 2 2 2 2 2 2 2 2 2 2 2 2 1 1 1 1 1 1 1 2 2 2 1 1
11 11 10 10 10 10 10 10 9 9 9 9 9 9 8 8 8 8 7 7 7 7 6 6 6 6 5 5 5 5 4 4 4 4 4 4 4 4 3 3 3 3 3 3 2 2 2 2 2 2 2 2 2 2 2 1 1 1 1 1 1 1 1 1 1 1 1 1 1
11 10 10 10 10 10 10 9 9 9 9 9 9 8 8 8 7 7 7 7 7 6 6 6 6 5 5 5 5 4 4 4 4 4 4 4 3 3 3 3 3 3 3 3 2 2 2 2 2 2 2 2 2 2 1 1 1 1 1 1 1 1 1 1 1 1 1 1 1
10 10 10 10 10 9 9 9 9 9 9 8 8 8 8 7 7 7 7 6 6 6 6 5 5 5 5 5 4 4 4 4 4 4 4 3 3 3 3 3 3 3 3 2 2 2 2 2 2 2 2 1 1 1 1 1 1 1 1 1 1 1 1 1 1 1 1 1 1
10 10 10 9 9 9 9 9 9 8 8 8 8 7 7 7 7 6 6 6 6 6 5 5 5 5 5 4 4 4 4 4 4 4 3 3 3 3 3 3 3 3 2 2 2 2 2 2 2 2 2 1 1 1 1 1 1 1 1 1 1 1 1 1 1 1 1 1 1
10 10 9 9 9 9 9 9 8 8 8 8 7 7 7 7 6 6 6 6 5 5 5 5 5 5 4 4 4 4 4 4 4 3 3 3 3 3 3 3 3 2 2 2 2 2 2 2 2 2 1 1 1 1 1 1 1 1 1 1 1 1 1 1 1 1 1 1 1
10 9 9 9 9 9 9 8 8 8 8 7 7 7 7 6 6 6 6 5 5 5 5 5 5 4 4 4 4 4 4 4 3 3 3 3 3 3 3 3 2 2 2 2 2 2 2 2 2 2 1 1 1 1 1 1 1 1 1 1 1 1 1 1 1 1 1 1 1
9 9 9 9 9 9 8 8 8 7 7 7 7 7 6 6 6 6 6 5 5 5 5 5 5 4 4 4 4 4 4 3 3 3 3 3 3 3 3 3 2 2 2 2 2 2 2 2 1 1 1 1 1 1 1 1 1 1 1 1 1 1 1 1 1 1 1 1 1
9 9 9 9 9 8 8 8 8 7 7 7 7 6 6 6 6 6 5 5 5 5 5 5 4 4 4 4 4 4 4 3 3 3 3 3 3 3 3 2 2 2 2 2 2 2 2 1 1 1 1 1 1 1 1 1 1 1 1 1 1 1 1 1 1 1 1 1 1
9 9 9 9 8 8 8 8 7 7 7 7 6 6 6 6 6 5 5 5 5 5 5 5 4 4 4 4 4 4 3 3 3 3 3 3 3 3 2 2 2 2 2 2 2 2 1 1 1 1 1 1 1 1 1 1 1 1 1 1 1 1 1 1 1 1 1 1 1
9 9 9 8 8 8 8 7 7 7 7 6 6 6 6 6 6 5 5 5 5 5 5 4 4 4 4 4 4 3 3 3 3 3 3 3 3 3 2 2 2 2 2 2 2 1 1 1 1 1 1 1 1 1 1 1 1 1 1 1 1 1 1 1 1 1 1 1 1
9 9 8 8 8 8 7 7 7 7 7 6 6 6 6 6 6 5 5 5 5 5 5 4 4 4 4 4 3 3 3 3 3 3 3 3 3 2 2 2 2 2 2 2 1 1 1 1 1 1 1 1 1 1 1 1 1 1 1 1 1 1 1 1 1 1 1 0 0
9 8 8 8 8 7 7 7 7 7 6 6 6 6 6 6 5 5 5 5 5 5 5 4 4 4 4 4 3 3 3 3 3 3 3 3 3 2 2 2 2 2 2 1 1 1 1 0 1 1 1 1 1 1 1 1 1 1 1 1 1 1 1 1 1 1 1 1 0
8 8 8 8 8 7 7 7 7 6 6 6 6 6 6 6 5 5 5 5 5 5 5 4 4 4 4 3 3 3 3 3 3 3 3 3 2 2 2 2 2 2 2 1 1 1 0 1 1 1 1 1 1 1 1 1 1 1 1 1 1 1 1 1 1 1 1 0 0
8 8 8 8 7 7 7 7 7 6 6 6 6 6 6 6 5 5 5 5 5 5 4 4 4 4 4 3 3 3 3 3 3 2 2 2 2 2 2 2 2 2 1 1 1 1 0 1 1 1 1 1 1 1 1 1 1 1 1 1 1 1 1 1 1 1 0 0 0
8 8 8 7 7 7 7 7 6 6 6 6 6 6 6 6 5 5 5 5 5 5 4 4 4 4 3 3 3 3 3 3 3 2 2 2 2 2 2 2 2 2 1 1 1 0 1 1 1 1 1 1 1 1 1 1 1 1 1 1 1 1 1 0 0 0 0 0 0
8 8 8 7 7 7 7 7 6 6 6 6 6 6 6 5 5 5 5 5 5 4 4 4 4 3 3 3 3 3 3 3 3 2 2 2 2 2 2 2 2 1 1 1 1 0 0 1 1 1 1 1 1 1 1 1 1 1 1 1 1 1 0 0 0 0 0 0 -0
8 8 7 7 7 7 7 6 6 6 6 6 6 6 5 5 5 5 5 5 4 4 4 4 3 3 3 3 3 3 3 3 2 2 2 2 2 2 2 1 1 1 1 1 0 0 0 0 1 1 1 1 1 1 1 1 1 1 1 1 0 0 0 0 0 0 0 -0 -0
8 8 7 7 7 7 7 7 6 6 6 6 6 5 5 5 5 5 5 4 4 4 4 3 3 3 3 3 3 3 3 3 2 2 2 2 2 2 1 1 1 1 1 1 0 0 0 0 1 1 1 1 1 1 1 1 1 1 0 0 0 0 0 0 0 -0 -0 -0 -0
8 7 7 7 7 7 7 6 6 6 6 6 5 5 5 5 5 5 4 4 4 4 4 3 3 3 3 3 3 3 2 2 2 2 2 2 1 1 1 1 1 1 1 0 0 0 0 0 1 1 1 1 1 1 1 1 1 0 0 0 -0 -0 -0 -0 -0 -0 -0 -0 -1
7 7 7 7 7 7 7 6 6 6 6 6 5 5 5 5 5 4 4 4 4 4 3 3 3 3 3 3 3 2 2 2 2 2 2 1 1 1 1 1 1 1 0 0 -0 0 0 0 0 1 1 1 1 1 1 0 0 0 -0 -0 -0 -0 -0 -0 -0 -0 -1 -1 -1
7 7 7 7 7 7 6 6 6 6 6 5 5 5 5 5 4 4 4 4 4 3 3 3 3 3 2 2 2 2 2 2 2 2 1 1 1 1 1 1 0 0 0 -0 -0 -0 0 0 0 0 0 1 1 0 0 0 -0 -0 -0 -0 -0 -0 -0 -0 -1 -1 -1 -1 -1
7 7 7 7 7 7 6 6 6 6 5 5 5 5 5 4 4 4 4 4 3 3 3 3 3 2 2 2 2 2 2 2 2 2 1 1 1 1 0 0 0 0 -0 -0 -0 -0 -0 -0 0 0 0 0 0 0 0 -0 -0 -0 -0 -1 -1 -1 -1 -1 -1 -1 -1 -1 -1
7 7 7 7 7 6 6 6 6 5 5 5 5 5 4 4 4 4 4 3 3 3 3 3 2 2 2 2 2 2 2 2 2 1 1 1 1 0 0 0 0 0 -0 -0 -1 -1 -0 -0 -0 0 0 0 0 -0 -0 -0 -0 -1 -1 -1 -1 -1 -1 -1 -1 -1 -1 -1 -1
7 7 7 7 6 6 6 6 6 5 5 5 5 5 4 4 4 4 3 3 3 3 3 3 2 2 2 2 2 2 2 1 1 1 1 1 0 0 0 -0 -0 -0 -0 -0 -1 -1 -1 -0 -0 -0 -0 -0 -0 -0 -0 -0 -1 -1 -1 -1 -1 -1 -1 -1 -1 -1 -1 -1 -1
7 7 7 6 6 6 6 6 5 5 5 5 5 4 4 4 4 3 3 3 3 3 2 2 2 2 2 2 2 2 2 1 1 1 1 1 0 0 -0 -0 -0 -0 -0 -1 -1 -1 -1 -1 -1 -0 -0 -0 -1 -1 -1 -1 -1 -1 -1 -1 -1 -1 -1 -1 -1 -1 -2 -2 -2
7 7 6 6 6 6 6 5 5 5 5 5 4 4 4 4 4 3 3 3 3 2 2 2 2 2 2 2 2 2 2 1 1 1 1 0 0 -0 -0 -1 -1 -1 -1 -1 -1 -1 -1 -1 -1 -1 -1 -1 -1 -1 -1 -1 -1 -1 -1 -1 -1 -1 -1 -2 -2 -2 -2 -2 -2
7 7 6 6 6 6 5 5 5 5 5 4 4 4 4 4 3 3 3 3 2 2 2 2 2 2 2 2 2 1 1 1 1 1 0 0 0 -0 -1 -1 -1 -1 -1 -1 -1 -1 -1 -1 -1 -1 -1 -1 -1 -1 -1 -1 -1 -1 -1 -1 -1 -1 -2 -2 -2 -2 -2 -2 -2
7 6 6 6 6 5 5 5 5 5 4 4 4 4 4 3 3 3 3 3 2 2 2 2 2 2 2 2 1 1 1 1 1 1 0 0 -0 -0 -1 -1 -1 -1 -1 -1 -1 -1 -1 -1 -1 -1 -1 -1 -0 -0 -1 -1 -1 -1 -1 -1 -2 -2 -2 -2 -2 -2 -2 -2 -2
7 6 6 6 6 5 5 5 5 5 4 4 4 4 3 3 3 3 3 3 2 2 2 2 2 2 2 2 1 1 1 1 1 1 0 0 -0 -0 -1 -1 -1 -1 -1 -1 -1 -1 -1 -1 -1 -1 -1 -0 -0 -0 -1 -1 -1 -1 -1 -1 -2 -2 -2 -2 -2 -2 -2 -2 -1
Height
830 830 831 831 832 832 833 834 835 836 836 837 838 838 839 839 839 839 838 838 838 838 837 837 837 837 837 836 836 836 835 835 834 834 834 833 833 832 832 831 830 830 829 829 829 828 827 827 826 825 825 824 824 823 822 822 821 820 820 819 819 818 817 816 816 815 815 814 814
829 830 830 831 831 832 833 834 834 835 836 837 837 838 838 838 838 838 838 837 837 837 836 836 836 836 836 835 835 835 834 834 833 833 832 832 831 831 830 830 829 829 828 828 827 827 826 825 825 824 824 823 822 822 821 820 820 819 818 818 817 816 816 815 814 814 814 813 812
829 829 830 830 831 832 833 834 834 835 836 836 837 837 838 838 838 837 837 837 836 836 836 835 835 835 834 834 834 834 833 833 832 831 831 830 830 829 829 829 828 828 827 827 826 826 825 824 824 823 822 821 821 820 819 819 819 818 817 816 816 815 814 814 813 813 812 811 811
828 829 829 830 831 831 832 833 834 835 835 836 837 837 837 837 837 837 836 836 835 835 835 834 834 834 834 833 833 833 832 831 831 830 830 829 829 828 828 827 827 826 826 825 825 824 824 823 823 822 821 820 819 819 818 818 817 816 816 815 814 814 813 812 812 811 811 810 809
828 828 829 829 830 831 832 833 834 834 835 836 836 836 836 836 836 836 835 835 834 834 834 834 833 833 833 832 832 831 831 830 830 829 829 828 828 827 827 826 826 825 825 824 824 823 823 822 821 820 820 819 818 818 817 816 816 815 814 814 813 813 812 811 810 810 809 809 808
827 828 829 829 830 831 832 833 834 834 835 835 835 836 836 835 835 835 834 834 834 833 833 833 832 832 831 831 831 830 830 829 829 828 827 827 826 826 825 825 824 824 824 823 823 822 821 821 820 819 819 818 817 817 816 815 814 814 813 812 812 811 810 809 809 808 808 807 806
826 827 828 829 830 831 832 833 833 834 834 835 835 835 835 835 834 834 834 833 833 832 832 831 831 831 830 830 829 829 829 828 828 827 826 826 825 825 824 824 824 823 823 822 821 821 820 819 819 818 817 817 816 815 815 814 813 812 812 811 810 809 809 808 807 807 806 805 804
826 827 828 829 830 831 831 832 833 833 834 834 834 834 834 834 834 833 833 832 832 831 831 830 830 830 829 829 829 828 828 827 826 826 825 825 824 824 824 823 822 822 821 821 820 819 819 818 818 817 816 815 815 814 814 813 812 811 810 809 809 808 808 807 806 805 804 804 803
826 827 828 829 830 830 831 832 832 833 833 834 834 834 833 833 833 832 832 831 831 830 830 829 829 829 829 828 828 827 827 826 825 825 824 824 824 823 822 822 821 821 820 820 819 819 818 817 816 815 815 814 814 813 812 811 810 809 809 808 807 806 806 805 804 804 803 802 801
825 827 828 829 829 830 831 831 832 832 833 833 833 833 832 832 832 831 831 830 830 829 829 829 829 828 828 827 827 826 826 825 824 824 824 823 823 822 821 821 820 820 819 819 818 817 816 816 815 814 814 813 812 811 811 810 809 808 807 806 805 804 804 803 803 802 801 801 800
825 826 827 828 829 830 830 831 831 832 832 832 832 832 831 831 831 830 830 829 829 829 828 828 828 827 827 827 826 825 825 824 824 823 823 822 822 821 820 820 819 819 818 817 817 816 815 814 814 813 812 812 811 810 809 809 808 807 806 805 804 803 802 801 801 801 800 799 798
825 826 827 828 829 829 830 831 831 831 831 831 831 831 831 830 830 829 829 829 828 828 828 827 827 827 826 826 825 825 824 824 823 822 822 821 821 820 819 819 818 818 817 816 815 815 814 813 812 812 811 810 809 809 808 807 806 805 804 803 803 802 801 800 799 799 798 798 797
825 826 827 828 829 829 829 830 830 830 830 830 830 830 830 829 829 829 828 828 828 827 827 827 827 826 826 825 824 824 823 823 822 821 821 820 819 819 818 818 817 816 816 815 814 814 813 812 811 810 809 809 808 807 806 806 805 804 803 802 801 800 799 799 798 797 797 796 795
824 825 826 827 828 829 829 829 829 830 830 829 829 829 829 829 829 828 828 827 827 827 827 826 826 825 825 824 824 823 823 822 821 820 820 819 819 818 817 816 816 815 814 814 813 812 812 811 810 809 808 807 806 806 805 804 803 802 801 800 799 799 798 797 796 796 795 794 794
824 825 826 827 827 828 828 829 829 829 829 829 829 829 829 828 828 827 827 827 826 826 826 825 825 825 824 824 823 822 822 821 820 819 819 818 818 817 816 815 814 814 813 813 812 811 810 809 809 808 807 806 805 804 803 803 802 801 800 799 798 797 796 796 795 794 794 793 792
824 825 825 826 827 827 828 828 828 828 828 828 828 828 828 827 827 827 826 826 826 825 825 825 824 824 823 823 822 821 821 820 819 819 818 817 816 815 815 814 814 813 812 811 810 810 809 809 808 807 806 804 804 803 802 801 800 799 799 798 797 796 795 794 794 793 792 791 790
823 824 825 825 826 827 827 827 827 828 828 828 827 827 827 827 826 826 826 825 825 824 824 824 823 823 822 822 821 820 820 819 818 817 817 816 815 814 814 813 812 811 811 810 809 808 808 807 806 805 804 803 802 801 800 799 799 798 797 796 795 794 794 793 792 791 790 789 789
823 824 824 825 825 826 826 827 827 827 827 827 827 826 826 826 825 825 825 824 824 824 823 823 822 822 821 820 820 819 819 818 817 816 815 815 814 813 812 812 811 810 809 809 808 807 806 805 805 804 803 802 801 800 799 798 797 796 795 794 794 793 792 791 790 790 789 788 787
822 823 824 824 825 825 825 826 826 826 826 826 826 825 825 825 824 824 824 824 823 823 822 822 821 821 820 820 819 818 818 817 816 815 814 814 813 812 811 810 810 809 808 807 807 806 805 804 803 802 801 800 799 798 797 796 795 794 794 793 792 791 790 789 789 788 787 786 785
822 822 823 824 824 824 825 825 825 825 825 825 825 824 824 824 824 823 823 823 822 822 821 821 820 820 819 819 818 817 816 816 815 814 813 812 812 811 810 809 808 808 807 806 805 804 804 802 801 800 799 799 797 796 795 794 794 793 792 791 790 789 788 787 787 786 785 784 784
821 822 822 823 823 824 824 824 824 824 824 824 824 824 823 823 823 822 822 822 821 821 820 820 819 819 818 817 817 816 815 814 814 813 812 811 810 809 809 808 807 806 805 805 804 803 802 801 800 799 798 797 796 795 794 793 792 791 790 789 788 787 786 785 785 784 783 783 782
820 821 821 822 823 823 823 823 823 823 823 823 823 823 822 822 822 821 821 821 820 820 819 819 818 818 817 816 815 814 814 813 812 811 810 810 809 808 808 807 806 805 804 803 802 801 800 799 798 797 796 795 794 793 792 791 790 789 788 787 786 785 784 784 783 782 781 781 780
819 820 821 821 822 822 822 822 822 822 822 822 822 822 821 821 821 820 820 820 819 819 818 818 817 816 816 815 814 813 812 811 810 810 809 809 808 807 806 805 804 804 803 802 801 799 798 797 796 795 794 794 793 792 791 789 789 787 786 785 784 783 782 782 781 780 780 779 779
819 819 820 820 821 821 821 821 821 821 821 821 821 820 820 820 819 819 819 819 818 818 817 817 816 815 814 814 813 812 811 810 809 808 808 807 806 805 805 804 803 802 801 800 799 799 797 796 795 794 793 793 791 790 789 788 787 786 785 784 782 781 780 780 779 779 778 778 777
818 819 819 819 819 820 820 820 820 820 820 820 820 819 819 819 818 818 818 817 817 816 816 815 814 814 813 812 811 810 809 809 808 807 806 805 805 804 803 802 801 800 800 799 798 797 797 796 795 794 792 791 790 789 788 787 786 785 784 782 781 780 779 778 777 777 777 776 775
817 818 818 818 819 819 819 819 819 819 819 819 819 818 818 818 817 817 816 816 815 815 814 814 813 812 811 810 809 809 808 807 806 806 805 804 803 802 801 801 800 799 798 797 797 796 795 794 794 792 791 790 789 787 786 785 784 783 782 781 780 779 777 776 775 775 774 774 774
816 817 817 817 818 818 818 819 819 818 818 818 818 817 817 816 816 815 815 814 814 814 813 812 812 811 810 809 808 807 807 806 805 804 804 803 802 801 800 799 798 797 797 796 795 794 794 793 792 791 790 789 787 786 784 783 782 781 780 779 778 777 776 775 774 773 772 772 771
815 816 816 816 817 817 817 818 817 817 817 817 816 816 815 815 814 814 814 813 813 812 811 811 810 809 808 807 807 806 805 804 804 803 802 801 800 799 799 797 796 796 795 794 794 793 792 791 790 789 788 787 786 784 783 782 780 779 779 778 776 775 774 774 773 771 771 770 769
814 814 815 815 816 816 816 816 816 816 816 815 815 814 814 814 813 813 812 812 811 810 810 809 808 808 807 806 805 804 804 803 802 801 801 800 799 798 797 796 795 794 794 793 792 791 790 789 788 788 787 786 784 783 781 780 779 778 777 776 775 774 773 772 771 770 769 769 768
813 814 814 814 815 815 815 815 815 814 814 814 814 813 813 812 812 811 811 810 809 809 808 808 807 806 805 804 804 803 802 801 801 800 799 798 797 796 795 794 794 793 792 791 790 789 789 788 787 786 785 784 783 781 780 779 778 776 775 774 773 772 772 771 769 769 768 767 766
812 813 813 813 814 814 814 814 814 813 813 813 812 812 811 811 810 810 809 809 808 807 807 806 805 804 804 803 802 801 801 800 799 799 798 797 796 795 794 793 792 791 790 790 789 788 787 786 785 784 783 782 781 780 778 777 776 775 774 773 772 771 770 769 768 767 766 766 764
811 811 812 812 812 812 812 812 812 812 812 811 811 810 810 809 809 809 808 807 807 806 805 804 804 803 802 801 801 800 799 798 798 797 796 795 794 794 792 791 790 789 789 788 788 787 786 785 784 783 781 780 779 778 777 775 774 773 772 771 770 769 769 768 767 766 765 764 763
810 810 810 810 811 811 811 811 811 810 810 810 809 809 809 808 808 807 806 806 805 804 804 803 802 801 801 800 799 798 797 797 796 795 795 794 793 792 791 790 789 788 788 787 786 785 784 783 782 781 780 779 778 776 775 774 773 771 770 769 768 768 767 766 765 764 763 763 762
809 809 809 809 809 809 809 809 809 809 809 808 808 808 807 807 806 805 805 804 804 803 802 801 801 800 799 799 798 797 796 795 794 794 793 793 792 791 789 788 787 787 786 785 784 784 782 781 780 779 778 777 775 774 773 772 771 769 769 767 766 766 765 764 764 763 762 761 760
807 808 808 808 808 808 808 808 808 808 807 807 806 806 806 805 804 804 803 803 802 801 800 800 799 799 798 797 796 795 794 794 793 792 792 791 790 789 788 787 785 785 784 784 783 782 781 779 778 777 776 775 774 772 771 770 769 768 767 766 765 764 763 763 762 761 760 759 758
806 806 807 807 807 807 807 807 806 806 806 805 805 804 804 803 803 802 802 801 800 799 799 798 798 797 796 795 794 794 793 792 791 791 790 789 789 787 786 785 784 783 783 782 781 780 779 778 777 775 774 773 772 770 769 768 767 766 765 764 763 762 762 761 760 759 758 757 756
805 805 805 805 805 805 805 805 805 805 804 804 803 803 802 802 801 800 800 799 799 798 797 797 796 795 794 794 793 792 791 791 790 789 788 788 787 786 784 783 782 781 781 780 779 778 777 776 775 774 773 771 770 769 768 767 765 764 763 762 761 760 760 759 758 757 756 755 754
804 804 804 804 804 804 804 804 804 803 803 802 802 801 800 800 799 799 798 798 797 796 795 795 794 793 793 792 791 790 790 789 789 788 787 786 785 784 783 781 780 779 779 778 777 776 775 774 773 772 771 770 769 767 766 765 764 763 762 760 759 759 758 757 756 755 754 753 752
803 803 803 803 803 803 802 802 802 802 801 800 800 799 799 798 798 797 797 796 796 795 794 793 792 791 791 790 789 789 788 788 787 786 785 784 784 783 782 780 779 778 777 776 776 774 774 773 772 771 770 769 768 766 765 764 762 761 760 759 758 757 756 755 754 753 752 751 750
801 801 801 801 801 801 801 801 800 800 799 799 798 798 797 796 796 795 795 794 794 793 792 791 790 790 789 789 788 787 786 785 785 784 784 783 782 781 780 779 777 776 775 774 774 773 772 771 770 769 769 767 766 765 764 763 761 760 759 758 756 755 754 753 753 751 750 749 748
800 800 800 800 799 799 799 799 799 798 798 797 796 796 795 795 794 794 793 793 792 791 790 789 789 788 788 787 786 785 784 784 783 782 782 781 780 779 778 777 776 774 774 773 772 771 770 769 769 768 767 766 765 764 763 761 760 759 757 756 755 754 753 751 750 749 748 747 746
Wind_Speed
15 14 13 12 11 11 10 8 7 6 6 5 4 3 2 3 3 3 4 5 5 6 7 8 9 10 11 12 13 14 15 16 16 17 18 18 18 19 19 19 19 18 18 18 18 18 18 19 19 20 20 20 20 20 20 19 18 18 18 17 18 18 18 18 19 19 19 18 18
15 14 13 12 11 10 9 8 7 6 6 5 4 3 3 3 3 4 5 5 6 7 8 9 10 11 12 13 14 15 16 17 17 18 18 18 18 18 18 18 18 18 18 18 18 18 19 20 20 21 21 21 21 21 20 19 19 19 19 19 19 19 19 19 19 19 19 19 19
14 13 13 12 11 10 9 8 8 7 6 5 4 3 3 4 4 5 5 6 7 8 9 10 11 12 13 14 15 16 17 17 18 18 18 18 18 18 18 18 17 17 17 18 18 19 19 20 20 21 21 22 22 21 21 20 19 19 19 20 20 20 20 20 20 19 19 19 19
14 13 13 12 11 10 9 8 8 7 6 5 4 4 4 4 5 5 6 7 8 9 10 11 12 13 14 15 16 17 17 17 17 18 18 18 18 17 17 17 17 17 18 18 19 19 20 20 21 21 21 22 22 21 21 20 20 20 20 20 20 20 20 20 20 20 19 19 19
15 14 13 12 11 10 9 8 8 7 6 5 4 4 4 4 5 6 7 8 9 10 11 12 13 14 15 15 16 16 17 17 17 17 17 17 17 17 17 17 17 18 18 18 19 19 20 20 21 21 21 21 21 21 21 21 21 21 21 21 21 21 21 20 20 20 20 20 20
16 14 13 12 11 10 9 9 8 6 5 4 4 4 4 5 6 7 8 9 10 10 11 12 13 14 15 15 15 16 16 16 16 16 16 16 16 17 17 17 17 18 18 19 19 19 20 20 21 21 21 21 21 21 21 21 21 21 21 21 21 21 21 21 21 21 21 21 21
16 14 13 12 11 10 9 8 7 6 4 4 4 4 5 6 7 7 8 9 10 11 11 12 13 14 14 15 15 15 15 15 15 15 15 16 16 17 17 17 18 18 18 19 19 20 20 20 21 21 21 21 21 21 21 21 21 21 22 22 21 21 21 21 21 21 21 22 22
15 14 13 12 11 10 8 7 6 5 4 3 4 4 5 6 7 8 8 9 10 11 11 12 12 13 13 14 14 14 14 14 14 15 15 16 16 17 17 18 18 18 19 19 19 20 20 20 20 21 21 21 21 21 21 21 21 21 22 22 22 21 21 21 21 22 22 22 22
15 14 13 11 10 9 8 6 5 4 3 3 4 5 5 6 7 8 8 9 10 10 11 11 11 12 12 12 13 13 13 14 14 15 15 16 16 17 18 18 18 19 19 19 19 19 20 20 20 21 21 21 21 21 21 21 21 21 22 22 22 22 22 21 21 21 21 22 22
15 13 12 11 9 8 7 6 5 4 3 3 3 4 5 6 7 7 8 9 9 10 10 10 11 11 11 12 12 12 13 14 14 15 16 16 17 17 18 19 19 19 19 19 19 20 20 20 21 21 21 21 21 21 21 21 21 22 22 22 22 22 22 21 21 21 21 21 22
14 13 12 10 9 8 7 6 4 3 2 2 3 4 5 6 6 7 8 8 8 9 9 10 10 10 11 11 12 12 13 14 14 15 16 17 17 18 18 19 19 19 20 20 20 20 20 21 21 21 21 21 21 21 22 21 21 22 22 22 22 22 22 22 21 21 21 21 22
14 12 11 10 9 8 6 5 3 2 1 1 2 3 4 5 6 6 7 7 8 8 8 9 10 10 11 11 12 13 13 14 15 16 17 18 18 18 19 19 19 19 20 20 20 20 21 21 22 22 22 22 22 22 22 22 22 22 22 22 22 22 22 22 21 21 21 21 22
13 12 11 10 9 7 6 4 2 1 0 1 2 3 3 4 5 6 6 7 7 8 8 9 10 10 11 12 13 13 14 15 16 17 17 18 19 19 19 19 20 20 20 20 20 20 21 21 22 22 23 23 22 22 22 22 22 22 22 22 22 22 22 22 21 21 21 22 23
13 12 11 10 8 6 5 3 2 1 1 1 2 2 3 4 4 5 6 7 7 8 9 9 10 11 12 13 13 14 15 16 17 17 18 19 19 19 20 20 20 20 20 20 20 21 21 22 22 22 23 23 23 22 22 22 22 22 22 22 22 22 22 22 22 22 23 23 23
14 12 11 9 7 5 4 3 2 2 2 2 2 2 3 4 4 5 6 7 8 9 10 11 11 12 12 13 14 15 16 17 17 18 19 19 19 19 20 20 20 20 21 21 21 21 22 22 22 23 23 23 23 23 22 21 21 21 21 21 22 22 23 23 23 23 24 24 24
13 12 10 8 6 5 4 3 2 2 2 2 3 3 4 4 5 6 7 8 9 10 11 12 12 13 14 14 15 16 17 17 18 19 19 19 20 20 20 20 21 21 21 22 22 22 22 22 22 23 23 23 23 23 22 21 21 21 21 21 22 23 23 24 24 24 24 24 24
13 11 9 7 5 4 3 3 2 2 2 3 3 4 5 5 6 7 8 9 10 11 12 13 14 14 15 16 16 17 17 18 19 19 19 20 20 20 20 20 21 21 22 22 23 23 23 23 23 23 23 23 22 22 22 21 21 21 22 22 23 23 24 24 25 25 25 25 25
12 10 8 6 5 4 3 2 2 2 2 3 4 5 5 6 7 8 9 10 11 12 13 14 14 15 16 17 17 18 18 19 19 19 19 19 20 20 20 21 21 22 22 23 23 23 24 24 23 23 23 22 22 22 21 21 22 22 23 24 24 25 25 25 25 25 25 25 25
10 9 7 6 4 3 2 2 2 2 3 3 4 5 6 7 8 9 10 10 11 12 13 14 15 16 16 17 18 18 18 19 19 19 19 19 20 20 21 21 22 22 23 23 23 24 24 24 24 24 23 22 22 22 22 22 23 24 25 25 26 26 26 26 25 25 25 25 25
9 8 6 5 4 3 2 1 2 2 3 4 5 6 7 8 9 10 11 11 12 13 14 15 16 16 17 18 18 19 19 19 19 20 20 20 20 20 21 22 22 23 23 23 24 24 25 25 24 24 23 22 22 23 23 24 24 25 26 26 27 27 27 26 26 26 25 25 25
9 7 5 4 3 2 1 1 2 3 4 5 6 7 8 9 10 10 11 12 13 13 14 15 16 17 17 18 19 19 20 19 19 20 20 20 20 21 21 22 23 23 24 24 24 25 25 25 24 23 23 23 23 24 24 25 26 26 27 27 27 27 27 27 27 26 26 25 25
8 6 5 3 2 1 0 1 2 3 4 5 7 8 9 10 10 11 12 13 13 14 15 15 16 17 18 18 19 20 20 20 20 20 20 20 21 21 22 22 23 24 24 25 25 26 26 25 24 23 23 24 24 25 25 26 27 27 28 28 28 28 28 27 27 26 25 25 25
7 6 4 3 2 1 0 2 3 4 5 7 8 9 10 11 11 12 13 14 14 15 15 16 16 17 18 18 19 20 20 20 20 20 20 21 21 22 22 23 23 24 25 25 26 26 25 24 24 23 24 24 25 25 26 26 27 27 28 28 28 28 28 28 27 26 25 25 24
6 5 4 2 1 1 1 2 4 5 7 8 9 10 11 12 12 13 14 14 15 15 16 16 17 17 18 19 19 20 20 21 21 21 21 21 22 22 23 23 24 25 25 26 26 25 23 22 23 23 24 24 25 25 26 26 27 27 28 28 28 28 28 28 27 26 25 25 25
6 4 3 2 1 1 2 4 5 7 8 9 10 11 11 12 13 14 14 15 15 16 16 16 17 17 18 19 19 20 20 21 21 21 22 22 23 23 24 24 25 25 26 26 26 24 22 21 22 23 24 24 25 25 26 26 26 27 27 27 28 28 28 28 27 26 26 25 25
5 4 3 2 1 2 3 5 6 8 9 10 10 11 12 13 13 14 15 15 15 16 16 16 17 17 18 19 20 20 20 21 21 22 22 23 24 24 25 25 26 26 26 27 25 24 22 22 22 22 23 24 25 25 26 26 26 26 27 27 27 27 27 27 27 27 26 26 25
4 3 2 2 2 4 5 6 7 8 9 10 11 12 12 13 13 14 15 15 15 16 16 16 17 18 18 19 20 20 21 21 21 22 22 23 24 25 25 26 26 27 27 27 25 24 23 23 23 23 23 23 24 25 26 26 26 27 26 26 26 26 26 26 26 26 26 26 26
4 3 2 3 4 5 6 7 8 9 10 10 11 12 12 13 14 14 15 15 15 16 16 17 17 18 18 19 20 20 21 21 22 22 23 24 24 25 26 27 27 27 27 27 25 24 23 23 23 23 23 23 24 25 25 26 26 26 26 26 25 25 25 25 25 25 26 27 26
4 3 3 4 5 6 7 8 8 9 10 11 11 12 13 14 14 14 15 15 15 16 16 17 17 18 18 19 20 20 21 22 22 23 24 24 25 26 26 27 27 28 28 27 26 24 24 23 23 23 23 23 24 25 25 26 26 26 26 25 25 24 24 24 25 26 26 27 27
4 4 5 6 7 7 8 8 9 9 10 11 12 13 14 14 15 15 15 15 15 16 16 17 17 18 18 19 20 21 21 22 23 23 24 25 26 26 27 27 28 28 28 27 26 24 23 23 24 24 24 24 24 25 26 26 26 26 25 25 25 25 25 25 25 26 26 26 27
5 5 6 7 8 8 8 9 9 10 11 12 13 13 14 15 15 15 15 15 15 16 16 17 17 18 19 19 20 21 22 23 23 24 24 25 26 27 27 28 28 28 28 27 25 24 23 24 24 24 24 24 24 25 25 26 26 25 25 25 26 26 25 25 25 25 26 26 26
6 7 7 8 8 9 9 9 10 11 12 12 13 14 15 15 15 15 15 15 15 16 16 16 17 18 19 20 20 21 22 23 24 24 25 25 26 27 27 28 28 28 28 26 24 24 24 24 24 25 25 25 24 25 25 26 26 26 26 26 26 26 25 25 25 25 25 25 26
7 8 8 9 9 9 10 10 11 11 12 13 14 14 15 15 15 15 15 15 15 16 16 16 17 18 19 20 21 22 23 23 24 25 25 25 26 27 27 28 28 28 27 25 24 24 24 24 25 25 25 25 24 25 25 26 26 26 27 26 26 25 25 24 24 24 25 25 26
8 8 9 9 10 10 11 11 12 12 13 14 15 15 15 15 15 15 15 15 15 16 16 16 17 18 19 20 21 22 23 24 25 25 26 26 26 27 27 28 28 27 26 25 24 24 24 24 25 25 25 25 24 25 26 26 26 27 27 26 25 25 24 23 24 24 25 25 27
8 9 9 10 11 11 12 12 12 13 14 14 15 15 15 15 15 15 15 15 15 16 16 17 17 18 19 20 21 22 23 24 25 25 26 26 26 27 27 28 28 28 27 26 25 24 24 24 24 25 25 24 25 25 26 26 26 26 26 25 25 24 24 24 24 24 25 26 27
8 9 10 11 12 12 12 13 13 13 14 15 15 15 15 15 16 15 15 15 16 16 16 17 18 19 19 20 21 22 23 24 25 26 26 26 26 27 27 28 28 28 27 26 25 24 24 24 24 24 24 24 25 25 26 26 26 25 25 24 24 24 24 24 24 25 25 26 27
9 10 11 12 12 13 13 13 13 14 15 15 15 15 16 16 16 16 15 15 15 16 17 18 18 19 20 21 22 23 23 24 25 26 26 26 26 27 27 28 28 28 27 26 25 24 24 24 24 24 24 24 25 25 25 25 25 24 24 24 24 24 24 24 25 25 25 26 27
10 11 12 13 13 13 13 14 14 14 15 15 15 16 16 16 16 16 15 15 15 16 17 18 19 19 20 21 22 23 24 24 25 26 26 27 27 26 27 27 28 27 27 26 25 25 24 24 24 23 23 23 24 24 25 24 24 23 23 23 24 24 24 25 25 25 25 26 26
10 11 12 13 14 14 14 14 14 15 15 15 16 16 16 16 16 16 16 15 15 16 17 18 19 20 21 21 22 23 24 25 25 26 26 27 27 26 26 26 27 27 27 26 25 25 24 24 23 22 22 22 23 24 24 23 23 23 23 23 24 25 25 25 25 25 25 25 25
11 12 13 14 14 15 15 15 15 15 15 15 16 16 16 16 16 16 16 16 16 16 17 18 19 20 21 21 22 24 25 26 26 26 26 26 26 26 25 25 26 27 27 26 25 24 23 23 22 22 21 21 22 23 23 22 22 22 23 23 24 25 25 25 24 24 24 25 25
12 13 14 15 15 15 15 15 15 15 15 16 16 16 16 16 16 16 16 16 16 17 17 18 19 20 21 22 23 24 25 26 27 27 26 26 26 26 25 25 26 26 26 25 24 24 23 22 21 21 20 21 21 22 22 22 22 22 23 24 24 24 25 25 25 24 24 24 24
Wind_Direction
183 183 184 185 187 187 187 187 186 186 184 183 184 195 220 247 271 287 299 310 317 321 323 323 321 319 318 316 315 314 313 313 313 314 314 315 315 316 317 318 319 320 321 323 324 326 327 328 328 327 327 328 329 330 330 331 332 332 331 331 331 330 328 326 325 324 323 322 320
180 179 179 179 181 181 180 177 177 176 176 180 189 208 235 257 276 291 304 312 317 318 318 317 315 314 312 311 311 311 311 311 312 312 313 314 315 316 317 318 319 321 323 324 326 327 328 329 329 329 329 329 329 330 330 331 332 332 332 331 330 329 328 326 324 324 323 322 320
176 174 172 171 171 172 172 171 171 173 176 184 202 223 247 266 283 296 305 310 313 313 312 311 310 309 308 308 307 308 309 310 311 312 312 313 314 315 317 319 320 322 324 326 327 328 329 329 329 329 329 329 330 330 331 331 332 332 331 329 329 328 326 325 324 324 323 321 320
169 167 166 166 166 167 168 170 172 176 182 194 211 233 255 273 286 296 302 305 306 306 306 306 306 305 304 304 305 306 307 310 311 312 313 313 314 316 318 319 321 323 325 326 327 328 328 328 328 328 328 329 330 330 331 331 331 330 329 328 327 326 325 324 324 323 322 320 319
164 163 164 164 165 167 169 173 176 180 189 202 220 241 261 275 286 293 296 298 300 302 303 303 303 302 302 302 304 306 307 309 312 313 314 314 315 317 318 320 322 324 325 326 327 327 328 328 328 328 328 329 330 330 330 330 330 328 327 326 325 325 324 323 323 322 321 319 317
162 162 163 165 167 169 172 175 179 185 194 208 228 250 266 277 284 288 291 294 297 300 301 301 301 301 302 303 305 307 308 310 312 314 315 316 317 318 320 322 323 324 325 326 326 327 327 328 327 327 328 329 330 329 329 329 328 327 325 324 324 324 323 322 322 321 320 317 316
163 163 164 167 170 172 174 178 183 189 198 215 238 257 269 276 282 286 290 294 296 299 300 301 301 302 303 305 307 309 311 312 314 315 317 319 319 320 322 323 323 324 325 326 327 327 328 328 328 328 329 330 330 329 329 328 327 325 324 323 323 323 323 321 321 320 318 316 315
164 165 166 168 171 173 175 177 181 188 202 223 245 261 272 278 283 287 292 295 297 299 301 303 304 305 306 307 309 311 313 315 316 317 319 320 322 323 324 324 325 325 326 327 328 328 329 329 329 329 330 331 330 329 328 327 326 325 323 322 322 322 321 321 320 319 317 316 315
164 166 169 170 172 173 173 174 178 188 207 231 251 265 274 282 288 291 294 297 300 303 304 305 306 307 308 310 312 315 317 319 320 322 323 324 325 326 327 327 327 327 328 329 330 330 330 330 330 330 331 330 329 328 327 327 326 324 323 321 321 320 320 319 318 318 317 316 315
165 167 169 169 169 169 168 169 174 187 211 237 257 271 282 289 293 296 299 302 304 306 307 308 309 310 312 314 317 319 322 324 325 326 327 328 328 329 329 329 329 329 330 331 331 332 331 331 331 331 330 330 328 327 327 327 325 323 322 320 320 318 318 317 318 318 317 317 316
167 167 167 165 163 162 162 163 169 182 213 248 269 283 292 295 298 301 304 305 307 308 311 312 313 315 316 319 321 324 326 327 328 329 329 330 330 330 331 331 331 331 332 332 333 333 333 332 331 330 330 329 328 327 327 326 325 323 321 320 319 318 317 317 318 318 318 317 316
167 165 163 160 157 156 156 157 159 170 214 276 294 299 300 301 303 306 308 309 311 313 315 317 319 320 322 324 326 327 329 330 330 330 330 331 331 331 331 331 331 332 333 334 334 334 333 332 331 330 329 328 328 327 326 326 324 322 320 319 319 318 318 318 318 318 317 316 314
163 159 156 153 152 149 147 143 135 119 17 331 322 316 312 311 312 314 316 318 319 321 323 324 325 326 327 328 329 330 330 331 330 330 330 330 331 331 331 332 332 333 334 334 334 334 333 332 331 330 328 328 327 327 326 324 323 321 320 320 319 318 318 318 318 318 317 315 313
158 154 151 148 145 140 132 120 100 68 28 359 343 336 330 328 328 329 330 331 331 331 331 331 331 332 332 331 331 331 331 330 330 329 329 330 330 331 332 332 333 334 334 334 334 333 333 332 331 330 328 327 326 325 325 323 322 320 319 319 318 318 317 317 317 317 315 313 311
153 150 147 143 137 128 116 102 82 59 35 19 6 357 353 350 347 345 345 344 342 340 339 338 337 336 335 334 333 332 331 330 329 329 329 329 330 331 332 332 333 334 334 334 333 332 332 331 330 329 328 326 325 324 323 322 320 319 318 317 317 316 316 316 316 315 313 312 310
150 147 143 137 128 118 106 93 76 60 44 31 20 11 6 2 358 355 353 351 348 345 343 342 340 338 337 336 334 332 330 329 329 329 329 329 330 331 331 332 333 333 333 333 332 332 331 331 330 329 327 325 323 322 321 320 319 318 317 316 316 315 315 315 314 313 312 310 308
147 143 138 131 123 113 103 89 74 57 43 29 19 12 6 1 358 356 353 351 347 345 343 342 340 339 337 336 334 332 330 329 329 328 329 329 330 330 331 332 332 333 332 332 331 331 330 330 329 327 326 324 322 321 320 319 319 318 317 316 315 315 314 313 313 312 311 309 306
144 140 135 127 120 112 101 86 68 48 32 19 10 5 359 355 353 351 349 346 343 340 339 338 338 337 335 334 333 331 330 329 328 328 328 329 329 330 330 331 331 331 331 330 330 329 329 329 328 326 325 323 321 320 320 319 318 317 317 316 315 314 313 313 312 311 309 307 305
142 137 131 126 120 112 100 80 55 31 15 5 360 355 351 348 344 342 340 339 336 334 333 332 332 332 332 331 330 330 329 328 328 328 328 328 329 330 330 330 330 330 329 329 328 328 328 327 326 325 324 322 321 320 320 319 318 317 316 315 314 313 313 312 311 310 308 306 304
139 133 129 124 119 112 98 68 29 9 358 352 348 345 341 338 336 333 332 330 329 327 326 326 326 327 327 328 328 328 328 327 327 327 328 328 329 329 330 330 329 328 328 327 327 327 327 326 326 325 323 322 321 320 320 319 317 316 315 314 313 312 312 311 310 309 307 306 304
135 131 128 124 121 116 95 35 359 347 342 338 336 333 331 328 327 325 323 322 321 320 320 320 321 322 323 325 326 326 327 327 327 327 328 328 329 329 329 329 328 327 326 326 326 327 326 326 325 324 323 322 320 319 318 317 316 315 314 313 312 311 311 310 309 308 306 305 304
134 132 129 128 128 128 100 339 333 328 326 323 323 322 321 320 319 317 316 314 314 313 313 314 316 318 320 322 323 325 325 326 326 327 327 328 328 328 328 328 327 326 326 326 326 327 326 325 324 323 322 320 318 317 316 315 314 313 312 311 311 310 310 309 308 307 305 304 303
134 133 133 135 140 155 281 309 312 312 311 311 313 313 314 313 313 311 309 307 307 307 309 310 312 315 317 320 322 323 324 325 326 327 327 327 327 328 327 327 326 325 325 326 326 326 326 324 322 320 319 317 315 314 314 313 312 311 310 310 310 309 308 308 307 306 305 303 302
136 138 140 144 161 223 282 296 300 299 300 303 305 307 308 309 308 306 303 302 303 304 306 308 310 313 316 318 320 322 323 324 326 327 327 327 327 327 327 326 326 325 325 326 326 326 323 319 317 315 314 313 312 311 311 310 309 309 308 308 308 307 307 306 306 305 303 302 301
140 144 150 163 200 259 282 287 289 291 294 298 302 304 305 305 304 302 300 300 302 304 305 307 310 313 315 317 319 321 323 325 325 326 326 327 327 327 327 326 326 325 325 326 325 323 318 314 312 311 311 310 310 309 309 308 307 307 307 306 306 306 305 305 304 304 303 302 301
147 153 164 188 237 266 275 279 283 287 292 296 300 302 303 302 301 300 300 301 303 305 306 308 310 313 315 317 319 321 323 324 325 325 326 326 326 326 326 326 325 325 325 325 324 320 316 313 311 310 310 309 309 308 308 307 307 306 306 305 305 304 304 303 303 303 303 302 301
153 163 181 216 251 263 269 275 280 285 291 296 299 301 301 300 300 300 301 303 304 306 307 309 311 313 315 317 319 321 323 324 325 325 325 325 325 325 325 325 325 325 325 324 322 318 315 312 311 310 309 309 309 308 307 307 306 306 305 304 304 303 302 302 302 303 303 303 302
160 173 201 235 251 261 267 273 279 285 291 296 298 298 299 300 301 302 304 305 306 307 309 310 313 314 315 317 319 320 322 323 324 325 325 325 325 324 324 324 324 324 324 323 320 317 314 312 311 310 310 309 309 308 307 306 306 305 304 303 303 302 302 302 302 302 303 303 302
169 190 219 239 252 259 267 273 280 287 292 294 296 298 300 302 303 305 306 307 307 308 310 311 313 314 315 317 319 320 321 323 324 325 325 325 324 324 323 323 323 323 323 321 319 316 313 312 311 310 310 309 309 307 307 306 305 305 304 303 303 302 302 301 302 302 303 303 302
185 208 229 243 253 261 268 276 283 288 291 293 295 298 301 303 305 306 307 307 308 309 311 312 313 314 315 317 319 320 321 322 324 324 324 324 323 323 323 322 322 322 322 321 318 315 313 311 310 309 309 309 308 307 306 306 305 305 304 304 304 303 303 302 302 302 302 302 302
201 220 236 247 256 264 272 279 283 286 289 292 296 300 303 305 306 307 307 308 308 310 311 312 312 313 315 317 318 319 320 322 323 324 324 323 322 322 321 321 320 320 320 320 317 314 312 311 310 309 309 309 308 307 306 306 305 305 304 304 304 304 303 302 302 302 302 302 302
213 228 240 251 260 268 275 279 281 285 289 293 298 301 304 305 306 307 307 308 309 310 311 311 312 313 315 316 317 319 320 321 322 323 323 322 321 320 320 319 318 318 319 318 316 313 311 310 309 309 309 309 308 307 306 305 305 305 304 304 304 303 302 302 301 301 302 303 304
221 233 244 254 263 270 274 277 280 284 289 294 298 301 304 305 306 307 307 308 309 310 310 311 311 312 314 316 317 319 320 321 321 322 322 321 320 319 318 317 317 317 317 317 314 312 310 310 309 309 309 309 308 307 306 305 305 305 305 304 303 302 301 301 301 301 302 304 306
227 239 248 257 264 269 272 274 279 284 290 295 298 301 303 304 305 306 308 309 309 310 310 310 310 311 313 315 317 318 319 320 320 320 320 320 319 317 316 315 315 316 316 315 313 311 310 310 309 309 309 310 308 307 306 306 306 305 304 304 303 302 301 301 301 302 304 306 308
233 243 252 259 265 267 270 274 279 285 290 294 298 301 303 304 305 306 308 309 309 309 309 309 310 312 313 315 317 318 319 319 319 319 319 318 317 316 315 314 315 316 316 315 313 311 310 310 310 310 310 310 309 308 307 307 306 305 304 303 303 302 302 302 302 304 306 308 308
237 246 254 260 263 266 270 274 280 285 290 294 298 301 302 304 305 306 308 309 308 307 307 309 310 312 314 316 317 318 318 318 317 317 317 317 316 315 314 314 315 316 317 317 315 313 311 311 310 311 311 310 309 308 308 307 306 305 304 303 303 303 303 303 304 305 306 308 307
240 248 254 259 263 265 270 275 280 285 290 294 298 300 302 304 305 306 307 307 307 306 307 309 311 313 315 317 317 317 317 317 316 316 316 316 315 314 314 313 314 316 318 318 316 313 311 311 311 311 311 310 309 309 308 307 305 304 304 304 304 304 304 305 304 305 305 306 306
243 249 254 259 262 266 270 275 280 285 290 295 298 300 302 303 304 305 305 305 305 306 307 310 312 314 316 317 317 316 316 316 315 315 314 315 315 315 314 313 314 315 317 318 316 314 312 311 311 311 310 309 309 308 308 306 305 304 304 305 305 305 305 305 305 304 303 303 303
245 250 254 258 261 266 270 275 280 286 291 296 298 300 301 301 302 303 304 304 305 306 308 310 312 314 316 316 316 315 314 314 314 314 314 314 315 315 314 313 313 315 317 318 318 317 314 311 310 310 310 309 308 308 307 306 305 305 305 305 306 306 306 305 304 303 301 301 302
248 251 254 257 261 266 271 276 282 287 292 295 297 298 299 300 301 302 303 304 305 307 310 311 313 314 315 315 314 313 313 313 314 314 315 315 316 316 314 313 313 315 317 319 319 318 315 312 310 310 310 309 308 307 307 307 306 306 305 305 305 305 305 304 303 301 299 299 301
249 252 255 257 262 266 272 277 283 289 293 295 296 297 299 299 300 301 302 304 306 308 310 311 312 313 313 313 313 312 312 312 313 315 316 316 316 316 315 315 315 316 318 320 320 319 316 312 310 309 309 309 308 308 308 308 307 306 305 304 304 303 303 303 302 299 297 297 298